Regional Weather Roundup
Issued by NWS

Home | Current Version | Previous Version | Text Only | Print | Product List | Glossary On
Versions: 1 2 3 4 5 6 7 8 9 10 11 12 13 14 15 16 17 18 19 20 21 22 23 24 25 26 27 28 29 30 31 32 33 34 35 36 37 38 39 40 41 42 43 44 45 46 47 48 49 50
000
ASCA44 KEWX 300120
RWRMX

LATIN AMERICA AND CARIBBEAN REGIONAL WEATHER ROUNDUP
NATIONAL WEATHER SERVICE AUSTIN/SAN ANTONIO TX
800 PM CDT TUE JUL 29 2014

NOTE: "FAIR" INDICATED FEW OR NO CLOUDS BELOW 12,000 FEET WITH NO
SIGNIFICANT WEATHER AND/OR OBSTRUCTIONS TO VISIBILITY.

BAJA CALIFORNIA

CITY           SKY/WX    TMP DP  RH WIND       PRES   REMARKS
LORETO         MOSUNNY   99  66  34 CALM      29.78F HX 102
LA PAZ         MOSUNNY   97  59  28 NW9       29.84  HX  96
MEXICALI       SUNNY    109  46  12 CALM      29.76  HX 105
S.J. DEL CABO  SUNNY     91  68  46 SE13      29.87S HX  95
TIJUANA        MOSUNNY   79  48  34 NW13      29.99S

NORTHWESTERN MEXICO

CITY           SKY/WX    TMP DP  RH WIND       PRES   REMARKS
CULIACAN       PTSUNNY   99  72  41 NW12      29.82  HX 107
DURANGO        PTCLDY    82  37  20 E9        30.21F
GUAYMAS        MOSUNNY   93  81  66 S12       29.76  HX 113
HERMOSILLO     MOSUNNY  104  59  22 CALM      29.83  HX 104
CD. JUAREZ     PTSUNNY   90  59  35 CALM      30.04
LOS MOCHIS     MOSUNNY   93  68  43 W12       29.82S HX  97
OBREGON        PTSUNNY   99  68  36 W12       29.76  HX 104

NORTHEASTERN MEXICO

CITY           SKY/WX    TMP DP  RH WIND       PRES   REMARKS
CHIHUAHUA      PTSUNNY   90  48  24 N8        30.12
MATAMOROS      CLEAR     88  77  70 E14       30.01  HX 100
MONTERREY      CLEAR     97  48  19 E8        29.94S HX  93
NUEVO LAREDO   CLEAR    104  63  25 SE12      29.92  HX 106
REYNOSA        CLEAR     90  63  40 E17       29.96  HX  90
SALTILLO       CLEAR     82  61  47 NE17      30.17F
TORREON        PTCLDY    93  48  21 NE5       30.04F HX  90
CD. VICTORIA   PTCLDY    91  68  46 E9        29.96  HX  95

WESTERN MEXICO

CITY           SKY/WX    TMP DP  RH WIND       PRES   REMARKS
AGUASCALIENTES MOCLDY    68  48  49 NE14      30.28
COLIMA         MOCLDY    77  66  69 CALM      30.05S
DEL BAJIO      MOCLDY    66  57  72 NW8       30.29R
GUADALAJARA    RAIN      68  59  73 NE22      30.20
MANZANILLO     MOCLDY    86  77  74 NE6       29.86R HX  97
MAZATLAN       PTCLDY    88  73  62 W12       29.84R HX  96
P. VALLARTA    TSTM      82  72  69 E6        29.89R
ZACATECAS      MOCLDY    66  48  52 S12       30.32R

CENTRAL MEXICO

CITY           SKY/WX    TMP DP  RH WIND       PRES   REMARKS
MEXICO CITY    MOCLDY    70  54  56 N18       30.30R
MORELIA        MOCLDY    68  54  60 N10       30.25
POZA RICA      MOCLDY    84  77  79 E9        30.03R HX  94
PUEBLA         MOCLDY    61  55  82 W6        30.35R
QUERETARO      MOCLDY    72  54  53 NE14      30.27S
S. LUIS POTOSI PTCLDY    73  52  46 E17       30.28R
TAMPICO        CLEAR     84  72  65 E14       29.99S
TOLUCA         MOCLDY    61  52  72 NE3       30.38F

SOUTHERN MEXICO

CITY           SKY/WX    TMP DP  RH WIND       PRES   REMARKS
ACAPULCO       PTCLDY    86  81  84 W8        29.81S HX 102
OAXACA         PTCLDY    72  48  43 NE8       30.21F
VERACRUZ       PTCLDY    82  73  74 NE6       29.99S
ZIHUATANEJO    PTCLDY    82  73  74 CALM      29.82F

YUCATAN PENINSULA

CITY           SKY/WX    TMP DP  RH WIND       PRES   REMARKS
CAMPECHE       MOCLDY    82  75  78 N12       29.97R
CANCUN         PTCLDY    84  75  74 CALM      30.05R HX  92
CHETUMAL       PTCLDY    86  77  74 SE12      30.00R HX  97
CD. DEL CARMEN CLEAR     84  77  79 N14       29.96  HX  94
COZUMEL        PTCLDY    81  77  89 NE6       30.05R
MERIDA         MOCLDY    82  73  74 NE12      30.03R
MINATITLAN     PTCLDY    84  73  70 N17       29.95  HX  91
TAPACHULA      MOCLDY    84  79  84 CALM      29.88R HX  96
TUX. GUTIERREZ MOCLDY    77  72  83 CALM      29.96R
VILLAHERMOSA   MOCLDY    82  73  74 NE8       29.96R

CENTRAL AMERICA

CITY           SKY/WX    TMP DP  RH WIND       PRES   REMARKS
BELIZE CITY    PTCLDY    86  77  74 E9        30.00R HX  97
MANAGUA        PTCLDY    86  73  66 E7        29.83  HX  93

CARIBBEAN

CITY           SKY/WX    TMP DP  RH WIND       PRES   REMARKS
ARUBA          PTCLDY    82  75  78 E17       29.92R
CURACAO        PTCLDY    81  75  83 E12       29.94R
KINGSTON       PTCLDY    84  75  74 SE12      29.97R HX  92
NASSAU         PTCLDY    86  73  66 VRB2      30.03R HX  93
SAN JUAN       PTCLDY    81  75  83 E7        30.05R
SANTO DOMINGO  PTCLDY    79  72  78 VRB2      30.00R
ST. CROIX      PTCLDY    81  73  78 NE5       30.05R
ST. KITTS      PTCLDY    81  73  78 E14       30.03S
ST. MAARTEN    PTCLDY    82  72  69 E10       30.03S
ST. THOMAS     CLEAR     82  75  78 E7        30.05R

$$



USA.gov is the U.S. government's official web portal to all federal, state and local government web resources and services.